This is the latest recevied weather packets stored in our database for station/object KI5RAB. If no packets are shown the sender has not sent any weather packets the latest 1 day(s).
| Time | Temp. | Humidity | Pressure | Rain* | Wind** | Luminosity | Snow |
|---|---|---|---|---|---|---|---|
| 1778074615 | 23.89° C | 90% | 1012.1 hPa | 0 mm | - | 37 W/m² | - |
| 1778074009 | 23.89° C | 91% | 1012 hPa | 0 mm | - | 35 W/m² | - |
| 1778072192 | 23.89° C | 91% | 1011.6 hPa | 0 mm | - | 20 W/m² | - |
| 1778071889 | 23.89° C | 91% | 1011.5 hPa | 0 mm | - | 11 W/m² | - |
| 1778071587 | 23.89° C | 91% | 1011.5 hPa | 0 mm | - | 14 W/m² | - |
| 1778070982 | 23.89° C | 91% | 1011.9 hPa | 0 mm | - | 12 W/m² | - |
| 1778068863 | 23.89° C | 92% | 1011.5 hPa | 0 mm | - | 2 W/m² | - |
| 1778066746 | 23.89° C | 91% | 1011.6 hPa | 0 mm | - | 0 W/m² | - |
| 1778066443 | 23.89° C | 91% | 1011.5 hPa | 0 mm | - | 0 W/m² | - |
| 1778066141 | 23.89° C | 91% | 1011.6 hPa | 0 mm | - | 0 W/m² | - |
| 1778065838 | 23.89° C | 91% | 1011.7 hPa | 0 mm | - | 0 W/m² | - |
| 1778065536 | 23.89° C | 91% | 1011.5 hPa | 0 mm | - | 0 W/m² | - |
| 1778065233 | 23.89° C | 90% | 1011.8 hPa | 0 mm | - | 0 W/m² | - |
| 1778064022 | 23.89° C | 90% | 1011.2 hPa | 0 mm | - | 0 W/m² | - |
| 1778063719 | 23.89° C | 91% | 1011.2 hPa | 0 mm | - | 0 W/m² | - |
| 1778063114 | 23.89° C | 90% | 1011.3 hPa | 0 mm | - | 0 W/m² | - |
| 1778062811 | 23.89° C | 90% | 1011.3 hPa | 0 mm | - | 0 W/m² | - |
| 1778060390 | 23.89° C | 90% | 1011.3 hPa | 0 mm | - | 0 W/m² | - |
| 1778059786 | 23.89° C | 90% | 1011.5 hPa | 0 mm | - | 0 W/m² | - |
| 1778059484 | 23.89° C | 90% | 1011.1 hPa | 0 mm | - | 0 W/m² | - |
| 1778059180 | 23.89° C | 90% | 1010.9 hPa | 0 mm | - | 0 W/m² | - |
| 1778058575 | 23.89° C | 90% | 1011.2 hPa | 0 mm | - | 0 W/m² | - |
| 1778058273 | 23.89° C | 90% | 1011 hPa | 0 mm | - | 0 W/m² | - |
| 1778057666 | 23.89° C | 90% | 1011.1 hPa | 0 mm | - | 0 W/m² | - |
| 1778057060 | 23.89° C | 90% | 1011.2 hPa | 0 mm | - | 0 W/m² | - |
* Rain latest hour (hover to see other rain measurements)
** Current wind speed in m/s (hover to see current wind gust speed)